Regional Weather Roundup
Issued by NWS

Home | Current Version | Previous Version | Graphics & Text | Print | Product List | Glossary Off
Versions: 1 2 3 4 5 6 7 8 9 10 11 12 13 14 15 16 17 18 19 20 21 22 23 24 25 26 27 28 29 30 31 32 33 34 35 36 37 38 39 40 41 42 43 44 45 46 47 48 49 50

000
ASUS43 KTOP 240659
RWRKS

WEATHER ROUNDUP FOR KANSAS
NATIONAL WEATHER SERVICE GOODLAND KS
100 AM CST FRI NOV 24 2017

NOTE:  "FAIR" INDICATES FEW OR NO CLOUDS BELOW 12,000 FEET WITH NO
SIGNIFICANT WEATHER AND/OR OBSTRUCTIONS TO VISIBILITY.

KSZ001>006-013>018-027>032-041>047-240800-
NORTHWEST KANSAS

CITY           SKY/WX    TMP DP  RH WIND       PRES   REMARKS
GOODLAND       CLOUDY    50  35  56 SW12      29.82F
HAYS           CLOUDY    49  39  68 SW5       29.80F
HILL CITY      CLOUDY    52  40  63 W7        29.78F
RUSSELL        CLOUDY    50  40  68 SW13      29.78F
$$

KSZ061>065-074>080-084>089-240800-
SOUTHWEST KANSAS

CITY           SKY/WX    TMP DP  RH WIND       PRES   REMARKS
DODGE CITY     PTCLDY    53  37  54 SW12      29.85F
GARDEN CITY    CLOUDY    46  35  65 S6        29.84F
GREAT BEND     CLOUDY    51  38  60 S10       29.81F
LIBERAL        CLOUDY    42  35  76 SW9       29.89F
$$

KSZ066>073-081>083-090>101-240800-
SOUTHEAST KANSAS

CITY           SKY/WX    TMP DP  RH WIND       PRES   REMARKS
CHANUTE        CLOUDY    48  32  53 S9        29.90F
COFFEYVILLE    MOCLDY    46  32  58 S6        29.92F
HUTCHINSON     CLEAR     46  38  73 S6        29.83F
MEDICINE LODGE   N/A     50  37  61 SE6       29.85F
NEWTON         CLEAR     51  35  54 S13       29.84F
PARSONS        CLOUDY    48  33  56 S6        29.92F
WICHITA INTL   MOCLDY    44  36  73 MISG      29.85F
WICHITA JABRA  CLEAR     53  36  52 S12       29.85F
WICHITA MCCONL CLEAR     47  34  59 S8        29.86F
WINFIELD       CLEAR     47  36  65 S6        29.90F
$$

KSZ007>012-019>026-033>040-048>060-102>105-240800-
NORTHEAST KANSAS

CITY           SKY/WX    TMP DP  RH WIND       PRES   REMARKS
CONCORDIA      PTCLDY    55  40  56 SW16      29.75F
EMPORIA        PTCLDY    49  34  56 S13       29.84F
LAWRENCE       CLOUDY    46  36  68 SE6       29.84F
MANHATTAN      CLEAR     54  38  54 SW10      29.80F
OLATHE IND     PTCLDY    47  35  63 S9        29.86F
OLATHE EXE     PTCLDY    48  34  58 S7        29.86F
SALINA         CLEAR     50  39  66 S8        29.80F
TOPEKA BILLARD MOCLDY    53  37  54 S7        29.82F
TOPEKA FORBES  CLOUDY    54  36  50 S13       29.82F
$$




USA.gov is the U.S. government's official web portal to all federal, state and local government web resources and services.